User: anonymous   Login
Location: Unspecified
(0.0000°N, 0.0000°E)
Time: 20:32:20
(UTC+00:00)
Language:

OBJECT C - Orbit

View from above orbital plane
View from above orbital plane
View from above satellite
View from above satellite

Ground track
Ground track

The orbit data is extracted from the following two-line orbital elements,

1 44854U 19089C   22268.20014467  .00003745  00000-0  28870-3 0  9993
2 44854  36.9649 228.7585 0009114 306.7742  53.2231 15.01651418152933
Epoch (UTC): 25 September 2022 04:48:12
Eccentricity: 0.0009114
inclination: 36.9649°
perigee height: 555 km
apogee height: 568 km
right ascension of ascending node: 228.7585°
argument of perigee: 306.7742°
revolutions per day: 15.01651418
mean anomaly at epoch: 53.2231°
orbit number at epoch: 15293

The dashed part of the orbit path shows where the satellite is in the earth's shadow,  

DLR